Location: Key Biscayne
(25.6930°N, 80.1630°W)
Time: 15:07:04
(UTC-05:00)

Vanguard 1 - Pass Details

Date: 21 November 2017
Orbit: 650 x 3833 km, 34.2° (Epoch: 10 December)

Event Time Altitude Azimuth Distance (km) Brightness Sun altitude
Rises 19:20:16 0° 296° (WNW) 2,980 13.4 -24.6°
Reaches altitude 10° 19:22:38 10° 305° (NW) 2,043 12.2 -25.1°
Enters shadow 19:25:48 33° 347° (NNW) 1,136 10.3 -25.8°
